| time (UTC) | temp F | wind direction | speed MPH | gust MPH | rain 1hr in | rain 24hr in | rain mn in | humidity % | barometer mb |
| 20260505011023 | 75 | 247 | 9.0 | 13.0 | 0.00 | 0.00 | 0.00 | 59 | 1004.1 |
| 20260505010518 | 75 | 288 | 3.0 | 6.0 | 0.00 | 0.00 | 0.00 | 59 | 1004.2 |
| 20260505010016 | 76 | 234 | 4.0 | 6.0 | 0.00 | 0.00 | 0.00 | 59 | 1003.9 |
| 20260505005512 | 76 | 250 | 4.0 | 8.0 | 0.00 | 0.00 | 0.00 | 59 | 1003.8 |
| 20260505005010 | 76 | 216 | 5.0 | 10.0 | 0.00 | 0.00 | 0.00 | 58 | 1003.7 |
| 20260505004506 | 76 | 221 | 3.0 | 6.0 | 0.00 | 0.00 | 0.00 | 59 | 1003.7 |
| 20260505004003 | 76 | 237 | 2.0 | 6.0 | 0.00 | 0.00 | 0.00 | 58 | 1003.7 |
| 20260505003500 | 76 | 261 | 2.0 | 6.0 | 0.00 | 0.00 | 0.00 | 58 | 1003.7 |
| 20260505002956 | 77 | 232 | 4.0 | 8.0 | 0.00 | 0.00 | 0.00 | 57 | 1003.6 |
| 20260505002452 | 77 | 257 | 4.0 | 8.0 | 0.00 | 0.00 | 0.00 | 57 | 1003.3 |
| 20260505001951 | 77 | 247 | 6.0 | 10.0 | 0.00 | 0.00 | 0.00 | 57 | 1003.3 |
| 20260505001448 | 77 | 250 | 5.0 | 11.0 | 0.00 | 0.00 | 0.00 | 57 | 1003.5 |
| 20260505000945 | 77 | 231 | 1.0 | 11.0 | 0.00 | 0.00 | 0.00 | 57 | 1003.3 |
| 20260505000443 | 77 | 232 | 5.0 | 15.0 | 0.00 | 0.00 | 0.00 | 56 | 1003.6 |
| 20260504235940 | 77 | 259 | 5.0 | 8.0 | 0.00 | 0.00 | 0.00 | 57 | 1003.3 |
| 20260504235437 | 77 | 322 | 7.0 | 11.0 | 0.00 | 0.00 | 0.00 | 56 | 1003.3 |
| 20260504234933 | 77 | 229 | 5.0 | 10.0 | 0.00 | 0.00 | 0.00 | 56 | 1003.4 |
| 20260504234431 | 77 | 224 | 4.0 | 11.0 | 0.00 | 0.00 | 0.00 | 56 | 1003.4 |
| 20260504233927 | 78 | 283 | 7.0 | 13.0 | 0.00 | 0.00 | 0.00 | 55 | 1003.4 |
| 20260504233423 | 78 | 270 | 10.0 | 16.0 | 0.00 | 0.00 | 0.00 | 55 | 1003.3 |
| 20260504232920 | 78 | 270 | 11.0 | 16.0 | 0.00 | 0.00 | 0.00 | 55 | 1003.4 |
| 20260504232417 | 78 | 230 | 6.0 | 15.0 | 0.00 | 0.00 | 0.00 | 54 | 1003.5 |
| 20260504231914 | 78 | 238 | 6.0 | 15.0 | 0.00 | 0.00 | 0.00 | 53 | 1003.6 |
| 20260504231410 | 78 | 267 | 9.0 | 14.0 | 0.00 | 0.00 | 0.00 | 53 | 1003.7 |
| 20260504230907 | 79 | 259 | 7.0 | 13.0 | 0.00 | 0.00 | 0.00 | 53 | 1003.5 |
| 20260504230404 | 79 | 260 | 8.0 | 14.0 | 0.00 | 0.00 | 0.00 | 53 | 1003.7 |
| 20260504225903 | 80 | 268 | 6.0 | 8.0 | 0.00 | 0.00 | 0.00 | 52 | 1003.7 |
| 20260504225359 | 80 | 260 | 8.0 | 17.0 | 0.00 | 0.00 | 0.00 | 51 | 1003.5 |
| 20260504224856 | 80 | 281 | 5.0 | 10.0 | 0.00 | 0.00 | 0.00 | 51 | 1003.7 |
| 20260504224353 | 80 | 267 | 12.0 | 16.0 | 0.00 | 0.00 | 0.00 | 51 | 1003.7 |
| 20260504223850 | 80 | 285 | 11.0 | 19.0 | 0.00 | 0.00 | 0.00 | 51 | 1003.8 |
| 20260504223345 | 80 | 256 | 11.0 | 23.0 | 0.00 | 0.00 | 0.00 | 51 | 1003.6 |
| 20260504222842 | 80 | 241 | 8.0 | 10.0 | 0.00 | 0.00 | 0.00 | 51 | 1003.6 |
| 20260504222339 | 80 | 272 | 7.0 | 13.0 | 0.00 | 0.00 | 0.00 | 50 | 1003.8 |
| 20260504221837 | 80 | 273 | 4.0 | 10.0 | 0.00 | 0.00 | 0.00 | 50 | 1003.8 |
| 20260504221334 | 80 | 322 | 5.0 | 11.0 | 0.00 | 0.00 | 0.00 | 52 | 1003.7 |
| 20260504220831 | 80 | 263 | 4.0 | 9.0 | 0.00 | 0.00 | 0.00 | 51 | 1003.7 |
| 20260504220327 | 80 | 184 | 4.0 | 13.0 | 0.00 | 0.00 | 0.00 | 51 | 1003.7 |
| 20260504215825 | 80 | 214 | 8.0 | 18.0 | 0.00 | 0.00 | 0.00 | 51 | 1003.7 |
| 20260504215321 | 80 | 286 | 11.0 | 14.0 | 0.00 | 0.00 | 0.00 | 50 | 1003.8 |
| 20260504214817 | 80 | 262 | 7.0 | 18.0 | 0.00 | 0.00 | 0.00 | 49 | 1004.0 |
| 20260504214314 | 80 | 218 | 7.0 | 14.0 | 0.00 | 0.00 | 0.00 | 50 | 1003.8 |
| 20260504213811 | 80 | 265 | 8.0 | 21.0 | 0.00 | 0.00 | 0.00 | 50 | 1004.0 |
| 20260504213307 | 80 | 239 | 12.0 | 16.0 | 0.00 | 0.00 | 0.00 | 51 | 1004.1 |
| 20260504212804 | 80 | 302 | 10.0 | 21.0 | 0.00 | 0.00 | 0.00 | 50 | 1004.0 |
| 20260504212300 | 81 | 244 | 8.0 | 17.0 | 0.00 | 0.00 | 0.00 | 49 | 1004.1 |
| 20260504211758 | 80 | 287 | 10.0 | 16.0 | 0.00 | 0.00 | 0.00 | 49 | 1004.0 |
| 20260504211254 | 80 | 297 | 19.0 | 22.0 | 0.00 | 0.00 | 0.00 | 48 | 1004.0 |
| 20260504210752 | 81 | 271 | 19.0 | 26.0 | 0.00 | 0.00 | 0.00 | 48 | 1004.1 |
| 20260504210249 | 81 | 253 | 11.0 | 18.0 | 0.00 | 0.00 | 0.00 | 49 | 1004.2 |
| 20260504205746 | 80 | 220 | 8.0 | 10.0 | 0.00 | 0.00 | 0.00 | 49 | 1004.0 |
| 20260504205243 | 81 | 237 | 6.0 | 11.0 | 0.00 | 0.00 | 0.00 | 49 | 1004.4 |
| 20260504204741 | 80 | 203 | 10.0 | 16.0 | 0.00 | 0.00 | 0.00 | 50 | 1004.0 |
| 20260504204239 | 80 | 253 | 13.0 | 18.0 | 0.00 | 0.00 | 0.00 | 49 | 1004.3 |
| 20260504203738 | 80 | 259 | 13.0 | 21.0 | 0.00 | 0.00 | 0.00 | 49 | 1004.4 |
| 20260504203235 | 80 | 248 | 11.0 | 19.0 | 0.00 | 0.00 | 0.00 | 49 | 1004.4 |
| 20260504202735 | 80 | 250 | 5.0 | 18.0 | 0.00 | 0.00 | 0.00 | 49 | 1004.5 |
| 20260504202233 | 80 | 243 | 7.0 | 19.0 | 0.00 | 0.00 | 0.00 | 49 | 1004.5 |
| 20260504201730 | 80 | 325 | 7.0 | 11.0 | 0.00 | 0.00 | 0.00 | 50 | 1004.7 |
| 20260504201227 | 80 | 305 | 6.0 | 15.0 | 0.00 | 0.00 | 0.00 | 50 | 1004.7 |
| 20260504200725 | 80 | 247 | 4.0 | 14.0 | 0.00 | 0.00 | 0.00 | 49 | 1004.4 |
| 20260504200220 | 80 | 240 | 10.0 | 15.0 | 0.00 | 0.00 | 0.00 | 51 | 1004.7 |
| 20260504195717 | 79 | 242 | 11.0 | 19.0 | 0.00 | 0.00 | 0.00 | 50 | 1004.9 |
| 20260504195213 | 79 | 264 | 12.0 | 22.0 | 0.00 | 0.00 | 0.00 | 49 | 1005.0 |
| 20260504194710 | 80 | 290 | 17.0 | 19.0 | 0.00 | 0.00 | 0.00 | 50 | 1005.0 |
| 20260504194206 | 80 | 247 | 7.0 | 16.0 | 0.00 | 0.00 | 0.00 | 49 | 1004.9 |
| 20260504193703 | 80 | 242 | 8.0 | 16.0 | 0.00 | 0.00 | 0.00 | 50 | 1004.9 |
| 20260504193200 | 79 | 266 | 5.0 | 16.0 | 0.00 | 0.00 | 0.00 | 51 | 1004.8 |
| 20260504192659 | 79 | 329 | 12.0 | 22.0 | 0.00 | 0.00 | 0.00 | 51 | 1005.0 |
| 20260504192156 | 79 | 321 | 10.0 | 24.0 | 0.00 | 0.00 | 0.00 | 49 | 1004.9 |
| 20260504191655 | 79 | 256 | 10.0 | 17.0 | 0.00 | 0.00 | 0.00 | 50 | 1005.2 |
| 20260504191150 | 79 | 270 | 10.0 | 18.0 | 0.00 | 0.00 | 0.00 | 51 | 1005.0 |
| 20260504190646 | 79 | 319 | 6.0 | 16.0 | 0.00 | 0.00 | 0.00 | 51 | 1005.0 |
| 20260504190143 | 78 | 265 | 13.0 | 21.0 | 0.00 | 0.00 | 0.00 | 51 | 1005.1 |
| 20260504185639 | 79 | 294 | 11.0 | 17.0 | 0.00 | 0.00 | 0.00 | 51 | 1005.2 |
| 20260504185136 | 78 | 246 | 11.0 | 16.0 | 0.00 | 0.00 | 0.00 | 51 | 1005.2 |
| 20260504184632 | 78 | 258 | 11.0 | 23.0 | 0.00 | 0.00 | 0.00 | 51 | 1005.2 |
| 20260504184127 | 78 | 210 | 12.0 | 16.0 | 0.00 | 0.00 | 0.00 | 51 | 1005.1 |
| 20260504183625 | 78 | 249 | 15.0 | 19.0 | 0.00 | 0.00 | 0.00 | 50 | 1005.3 |
| 20260504183122 | 78 | 255 | 9.0 | 15.0 | 0.00 | 0.00 | 0.00 | 50 | 1005.0 |
| 20260504182620 | 78 | 262 | 11.0 | 18.0 | 0.00 | 0.00 | 0.00 | 52 | 1004.9 |
| 20260504182117 | 78 | 322 | 11.0 | 21.0 | 0.00 | 0.00 | 0.00 | 52 | 1005.2 |
| 20260504181614 | 78 | 230 | 4.0 | 13.0 | 0.00 | 0.00 | 0.00 | 53 | 1005.2 |
| 20260504181112 | 78 | 295 | 5.0 | 10.0 | 0.00 | 0.00 | 0.00 | 53 | 1005.3 |
| 20260504180611 | 76 | 246 | 3.0 | 10.0 | 0.00 | 0.00 | 0.00 | 54 | 1005.3 |
| 20260504180109 | 75 | 236 | 9.0 | 14.0 | 0.00 | 0.00 | 0.00 | 54 | 1005.2 |
| 20260504175606 | 74 | 218 | 6.0 | 11.0 | 0.00 | 0.00 | 0.00 | 56 | 1005.1 |
| 20260504175103 | 74 | 239 | 7.0 | 9.0 | 0.00 | 0.00 | 0.00 | 56 | 1005.1 |
| 20260504174601 | 74 | 221 | 6.0 | 8.0 | 0.00 | 0.00 | 0.00 | 56 | 1005.2 |
| 20260504174057 | 73 | 221 | 8.0 | 13.0 | 0.00 | 0.00 | 0.00 | 56 | 1005.3 |
| 20260504173554 | 73 | 223 | 7.0 | 10.0 | 0.00 | 0.00 | 0.00 | 56 | 1005.7 |
| 20260504173052 | 74 | 325 | 4.0 | 13.0 | 0.00 | 0.00 | 0.00 | 56 | 1005.6 |
| 20260504172547 | 74 | 287 | 4.0 | 13.0 | 0.00 | 0.00 | 0.00 | 55 | 1005.7 |
| 20260504172044 | 74 | 281 | 6.0 | 14.0 | 0.00 | 0.00 | 0.00 | 54 | 1005.5 |
| 20260504171541 | 74 | 233 | 8.0 | 15.0 | 0.00 | 0.00 | 0.00 | 54 | 1005.6 |
| 20260504171038 | 74 | 299 | 6.0 | 17.0 | 0.00 | 0.00 | 0.00 | 54 | 1005.7 |
| 20260504170534 | 75 | 231 | 11.0 | 17.0 | 0.00 | 0.00 | 0.00 | 54 | 1005.7 |
| 20260504150912 | 72 | 265 | 12.0 | 22.0 | 0.00 | 0.00 | 0.00 | 53 | 1005.8 |
| 20260504150409 | 71 | 280 | 9.0 | 17.0 | 0.00 | 0.00 | 0.00 | 54 | 1005.8 |
| 20260504140835 | 70 | 287 | 17.0 | 21.0 | 0.00 | 0.00 | 0.00 | 55 | 1006.5 |
| 20260504140331 | 69 | 261 | 10.0 | 19.0 | 0.00 | 0.00 | 0.00 | 55 | 1006.7 |
| 20260504130800 | 66 | 228 | 5.0 | 17.0 | 0.00 | 0.00 | 0.00 | 59 | 1006.7 |
| 20260504130256 | 66 | 228 | 11.0 | 16.0 | 0.00 | 0.00 | 0.00 | 59 | 1006.7 |
| 20260504120220 | 64 | 258 | 5.0 | 10.0 | 0.00 | 0.00 | 0.00 | 61 | 1007.0 |
| 20260504110647 | 63 | 232 | 9.0 | 11.0 | 0.00 | 0.00 | 0.00 | 60 | 1007.2 |
| 20260504110143 | 64 | 244 | 8.0 | 11.0 | 0.00 | 0.00 | 0.00 | 60 | 1007.3 |
| 20260504100609 | 65 | 264 | 3.0 | 14.0 | 0.00 | 0.00 | 0.00 | 59 | 1007.6 |
| 20260504100108 | 64 | 260 | 6.0 | 9.0 | 0.00 | 0.00 | 0.00 | 59 | 1007.8 |
| 20260504082003 | 66 | 227 | 4.0 | 9.0 | 0.00 | 0.00 | 0.00 | 57 | 1008.0 |
| 20260504081500 | 66 | 287 | 11.0 | 16.0 | 0.00 | 0.00 | 0.00 | 56 | 1008.1 |
| 20260504080955 | 66 | 230 | 8.0 | 15.0 | 0.00 | 0.00 | 0.00 | 56 | 1008.1 |
| 20260504080452 | 66 | 204 | 7.0 | 16.0 | 0.00 | 0.00 | 0.00 | 57 | 1008.1 |
| 20260504050305 | 70 | 218 | 9.0 | 11.0 | 0.00 | 0.00 | 0.00 | 51 | 1009.1 |
| 20260504045757 | 70 | 190 | 7.0 | 15.0 | 0.00 | 0.00 | 0.00 | 51 | 1009.2 |
| 20260504045256 | 69 | 309 | 4.0 | 10.0 | 0.00 | 0.00 | 0.00 | 52 | 1009.0 |
| 20260504044754 | 69 | 251 | 10.0 | 14.0 | 0.00 | 0.00 | 0.00 | 52 | 1009.0 |
| 20260504044252 | 69 | 226 | 5.0 | 8.0 | 0.00 | 0.00 | 0.00 | 53 | 1009.1 |
| 20260504043749 | 69 | 231 | 6.0 | 11.0 | 0.00 | 0.00 | 0.00 | 52 | 1009.0 |
| 20260504043245 | 70 | 282 | 4.0 | 9.0 | 0.00 | 0.00 | 0.00 | 52 | 1009.1 |
| 20260504042743 | 70 | 230 | 7.0 | 10.0 | 0.00 | 0.00 | 0.00 | 51 | 1009.1 |
| 20260504042240 | 70 | 243 | 9.0 | 18.0 | 0.00 | 0.00 | 0.00 | 51 | 1009.3 |
| 20260504041736 | 69 | 204 | 5.0 | 11.0 | 0.00 | 0.00 | 0.00 | 53 | 1009.3 |
| 20260504041232 | 69 | 211 | 4.0 | 13.0 | 0.00 | 0.00 | 0.00 | 53 | 1009.3 |
| 20260504040728 | 69 | 216 | 4.0 | 8.0 | 0.00 | 0.00 | 0.00 | 53 | 1009.4 |
| 20260504040226 | 69 | 207 | 2.0 | 9.0 | 0.00 | 0.00 | 0.00 | 52 | 1009.3 |
| 20260504035722 | 69 | 217 | 3.0 | 13.0 | 0.00 | 0.00 | 0.00 | 52 | 1009.4 |
| 20260504035219 | 69 | 187 | 4.0 | 13.0 | 0.00 | 0.00 | 0.00 | 52 | 1009.5 |
| 20260504034716 | 69 | 255 | 10.0 | 14.0 | 0.00 | 0.00 | 0.00 | 52 | 1009.5 |
| 20260504034214 | 70 | 219 | 4.0 | 7.0 | 0.00 | 0.00 | 0.00 | 52 | 1009.5 |
| 20260504033711 | 69 | 251 | 5.0 | 8.0 | 0.00 | 0.00 | 0.00 | 52 | 1009.7 |
| 20260504033208 | 69 | 245 | 4.0 | 9.0 | 0.00 | 0.00 | 0.00 | 52 | 1009.7 |
| 20260504032705 | 70 | 253 | 8.0 | 13.0 | 0.00 | 0.00 | 0.00 | 52 | 1009.7 |
| 20260504032203 | 70 | 225 | 3.0 | 9.0 | 0.00 | 0.00 | 0.00 | 52 | 1009.8 |
| 20260504031659 | 70 | 224 | 7.0 | 10.0 | 0.00 | 0.00 | 0.00 | 52 | 1009.8 |
| 20260504031155 | 70 | 196 | 2.0 | 9.0 | 0.00 | 0.00 | 0.00 | 53 | 1010.1 |
| 20260504030652 | 70 | 245 | 4.0 | 8.0 | 0.00 | 0.00 | 0.00 | 53 | 1009.7 |
| 20260504030149 | 70 | 209 | 5.0 | 8.0 | 0.00 | 0.00 | 0.00 | 53 | 1009.8 |
| 20260504025646 | 70 | 222 | 6.0 | 9.0 | 0.00 | 0.00 | 0.00 | 53 | 1009.8 |
| 20260504025143 | 71 | 183 | 3.0 | 7.0 | 0.00 | 0.00 | 0.00 | 53 | 1009.8 |
| 20260504024640 | 70 | 221 | 2.0 | 7.0 | 0.00 | 0.00 | 0.00 | 53 | 1009.8 |
| 20260504024136 | 70 | 224 | 3.0 | 9.0 | 0.00 | 0.00 | 0.00 | 53 | 1009.8 |
| 20260504023633 | 71 | 238 | 4.0 | 7.0 | 0.00 | 0.00 | 0.00 | 54 | 1009.9 |
| 20260504023130 | 71 | 234 | 5.0 | 9.0 | 0.00 | 0.00 | 0.00 | 53 | 1009.7 |
| 20260504022626 | 71 | 188 | 5.0 | 7.0 | 0.00 | 0.00 | 0.00 | 54 | 1009.7 |
| 20260504022122 | 71 | 225 | 4.0 | 7.0 | 0.00 | 0.00 | 0.00 | 53 | 1009.7 |
| 20260504021620 | 71 | 203 | 4.0 | 9.0 | 0.00 | 0.00 | 0.00 | 54 | 1009.8 |
| 20260504021116 | 71 | 257 | 5.0 | 10.0 | 0.00 | 0.00 | 0.00 | 54 | 1009.8 |
| 20260504020614 | 71 | 205 | 3.0 | 7.0 | 0.00 | 0.00 | 0.00 | 54 | 1009.8 |
| 20260504020109 | 71 | 244 | 3.0 | 6.0 | 0.00 | 0.00 | 0.00 | 54 | 1009.8 |
| 20260504015606 | 71 | 219 | 4.0 | 8.0 | 0.00 | 0.00 | 0.00 | 54 | 1009.6 |
| 20260504015102 | 71 | 229 | 3.0 | 4.0 | 0.00 | 0.00 | 0.00 | 55 | 1009.8 |
| 20260504014558 | 71 | 193 | 4.0 | 6.0 | 0.00 | 0.00 | 0.00 | 55 | 1009.9 |
| 20260504014055 | 71 | 229 | 3.0 | 6.0 | 0.00 | 0.00 | 0.00 | 55 | 1009.8 |
| 20260504013553 | 71 | 172 | 0.0 | 7.0 | 0.00 | 0.00 | 0.00 | 55 | 1009.9 |
| 20260504013050 | 71 | 239 | 3.0 | 6.0 | 0.00 | 0.00 | 0.00 | 55 | 1010.3 |
| 20260504012547 | 72 | 262 | 2.0 | 6.0 | 0.00 | 0.00 | 0.00 | 55 | 1009.8 |
| 20260504012045 | 72 | 223 | 3.0 | 4.0 | 0.00 | 0.00 | 0.00 | 54 | 1010.1 |
| 20260504011542 | 72 | 196 | 2.0 | 7.0 | 0.00 | 0.00 | 0.00 | 54 | 1010.2 |